Location: Milton Keynes
(52.0316°N, 0.7531°W)
Time: 03:15:08
(UTC+00:00)

Envisat - Pass Details

Date: 27 January 2019
Orbit: 764 x 766 km, 98.2° (Epoch: 20 February)

Event Time Altitude Azimuth Distance (km) Brightness Sun altitude
Rises 18:42:51 0° 169° (S) 3,222 6.2 -18.5°
Reaches altitude 10° 18:45:10 10° 171° (S) 2,300 5.4 -18.9°
Maximum altitude 18:50:13 73° 256° (WSW) 805 3.2 -19.6°
Drops below altitude 10° 18:55:20 10° 342° (NNW) 2,317 5.6 -20.4°
Sets 18:57:40 0° 345° (NNW) 3,247 6.4 -20.8°
